Date,TemperatureHighF,TemperatureAvgF,TemperatureLowF,DewpointHighF,DewpointAvgF,DewpointLowF,HumidityHigh,HumidityAvg,HumidityLow,PressureMaxIn,PressureMinIn,WindSpeedMaxMPH,WindSpeedAvgMPH,GustSpeedMaxMPH,PrecipitationSumIn
2013-1-2,74,74,73,68,67,67,82,81,78,30.03,29.97,15,12,0,0.00
2013-1-3,72,65,59,71,63,57,95,92,89,30.17,29.99,26,20,0,0.00
2013-1-4,53,53,53,49,49,49,87,87,87,30.23,30.23,28,28,0,0.00
2013-1-6,63,63,63,62,61,58,94,91,84,30.11,30.11,23,22,0,0.00
2013-1-7,62,62,62,61,61,61,96,96,96,30.11,30.11,30,30,0,0.00
2013-1-10,69,69,68,66,66,66,94,91,89,30.22,30.16,22,18,0,0.00
2013-1-13,72,72,72,71,71,71,95,95,95,29.96,29.96,15,15,0,0.00
2013-1-14,74,74,73,70,68,67,90,82,78,30.04,30.01,20,19,0,0.00
2013-1-15,73,73,73,64,64,64,72,72,72,30.02,30.02,23,23,0,0.00
2013-1-17,73,69,65,71,66,50,94,91,89,30.11,30.00,34,20,0,0.00
2013-1-18,57,56,55,50,50,49,81,79,77,30.28,30.20,34,33,0,0.00
2013-1-20,71,68,64,63,60,52,80,75,64,30.19,30.04,22,16,0,0.00
2013-1-21,72,72,72,68,68,68,88,88,88,30.02,30.02,11,11,0,0.00
2013-1-24,71,70,69,61,60,58,69,69,68,30.19,30.18,23,20,0,0.00
2013-1-25,71,67,64,61,58,54,79,72,58,30.24,30.18,23,18,0,0.00
2013-1-26,70,64,64,61,61,57,89,89,89,30.19,30.18,9,9,0,0.00
2013-1-29,73,72,72,71,70,69,95,92,85,30.11,30.09,23,22,0,0.00
2013-1-30,74,74,74,68,68,68,82,82,82,30.01,30.01,28,28,0,0.00
2013-2-2,67,66,66,62,56,50,82,69,56,30.16,30.15,22,19,0,0.00
2013-2-3,65,64,63,52,50,47,63,60,55,30.14,30.14,20,18,0,0.00
2013-2-5,72,71,67,71,67,64,100,87,77,29.97,29.91,23,15,0,0.00
2013-2-6,74,72,71,65,65,64,80,78,73,30.05,29.99,18,7,0,0.00
2013-2-8,75,75,75,71,71,71,86,86,86,29.95,29.95,22,22,0,0.00
2013-2-9,70,69,68,65,62,60,85,79,74,30.10,30.01,24,21,0,0.00
2013-2-15,78,73,70,74,72,70,100,95,86,29.97,29.93,24,22,0,0.00
2013-2-16,66,63,58,59,54,43,77,70,56,30.03,29.94,37,26,0,0.00
2013-2-17,45,45,45,-100,-100,-100,0,0,100,30.29,30.29,20,20,0,0.00
2013-2-18,62,62,62,50,50,50,63,63,63,30.08,30.08,31,31,0,0.00
2013-2-20,71,71,71,67,67,67,87,87,87,30.06,30.06,15,15,0,0.00
2013-2-22,82,78,73,75,72,69,85,82,79,30.00,29.98,16,14,0,0.00
2013-2-23,75,73,69,71,70,67,94,89,86,29.88,29.85,18,13,0,0.00
2013-2-26,68,65,60,65,61,56,89,88,87,29.84,29.66,30,23,0,0.00
2013-2-27,74,74,74,73,73,73,95,95,95,29.89,29.89,5,5,0,0.00
2013-2-28,61,61,61,52,52,52,73,73,73,29.94,29.94,14,14,0,0.00
2013-3-1,64,64,64,61,61,61,89,89,89,29.91,29.91,20,20,0,0.00
2013-3-2,64,61,58,54,50,45,69,66,62,29.97,29.94,30,28,0,0.00
2013-3-4,65,65,65,55,55,55,70,70,70,30.06,30.06,23,23,0,0.00
2013-3-5,69,69,69,59,59,59,71,71,71,30.08,30.08,5,5,0,0.00
2013-3-6,69,68,68,60,55,50,75,62,50,30.06,29.98,32,22,0,0.00
2013-3-7,50,50,50,40,40,40,67,67,67,30.11,30.11,16,16,0,0.00
2013-3-9,70,70,70,62,62,62,76,76,76,30.09,30.09,22,22,0,0.00
2013-3-10,78,71,66,66,63,61,84,75,66,30.08,30.00,25,22,0,0.00
2013-3-11,78,78,78,66,66,66,66,66,66,30.00,30.00,18,18,0,0.00
2013-3-12,58,58,58,49,49,49,71,71,71,30.10,30.10,14,14,0,0.00
2013-3-13,65,64,62,55,51,47,70,64,58,30.20,30.14,26,24,0,0.00
2013-3-16,75,70,66,66,58,52,81,65,60,30.14,30.05,18,13,0,0.00
2013-3-17,76,72,68,67,64,60,81,76,74,30.05,29.98,23,19,0,0.00
2013-3-18,65,65,65,63,63,63,95,95,95,29.86,29.86,15,15,0,0.00
2013-3-20,71,68,66,65,64,64,94,89,80,29.91,29.88,29,12,0,0.00
2013-3-21,73,69,66,66,65,62,94,86,68,29.90,29.88,14,10,0,0.00
2013-3-22,66,66,66,60,60,60,80,80,80,29.94,29.94,11,11,0,0.00
2013-3-23,77,77,77,76,76,76,95,95,95,29.85,29.85,11,11,0,0.00
2013-3-24,80,78,76,76,75,73,95,91,87,29.85,29.70,24,19,0,0.00
2013-3-25,70,59,51,59,17,-100,70,52,56,30.07,29.77,34,29,0,0.00
2013-3-26,42,42,42,-100,-100,-100,0,0,100,30.28,30.28,23,23,0,0.00
2013-3-28,62,59,57,59,51,46,89,75,66,30.28,30.24,18,12,0,0.00
2013-3-29,73,68,65,55,11,-100,62,43,56,30.22,30.18,21,20,0,0.00
2013-3-30,74,69,65,58,56,54,70,64,58,30.22,30.16,11,11,0,0.00
2013-3-31,70,70,70,64,64,64,81,81,81,30.14,30.14,16,16,0,0.00
2013-4-2,77,74,71,70,69,68,90,84,78,30.03,30.03,11,10,0,0.00
2013-4-3,78,76,74,69,69,68,82,77,74,29.94,29.89,25,25,0,0.00
2013-4-5,70,70,70,57,57,57,63,63,63,30.03,30.03,9,9,0,0.00
2013-4-6,68,68,68,57,57,57,67,67,67,30.09,30.09,16,16,0,0.00
2013-4-9,85,84,83,78,77,76,83,77,73,30.06,30.00,22,17,0,0.00
2013-4-10,86,86,86,75,75,75,70,70,70,29.91,29.91,0,-999,0,0.00
2013-4-11,73,72,70,70,67,59,90,83,67,29.77,29.75,21,17,0,0.00
2013-4-15,75,75,75,74,74,74,95,95,95,29.84,29.84,25,25,0,0.00
2013-4-16,83,81,77,77,76,74,91,85,80,30.02,29.93,25,22,0,0.00
2013-4-17,82,79,78,74,74,73,86,83,79,30.04,30.00,23,23,0,0.00
2013-4-20,80,80,80,76,76,76,87,87,87,29.97,29.97,0,0,0,0.00
2013-4-21,66,65,64,61,53,50,84,66,59,30.12,30.08,28,26,0,0.00
2013-5-6,66,65,63,49,48,48,60,55,52,30.03,29.99,10,9,0,0.00
2013-5-7,86,86,86,65,65,65,50,50,50,29.97,29.97,14,14,0,0.00
2013-5-12,68,68,68,65,65,65,89,89,89,30.04,30.04,16,16,0,0.00
2013-5-14,69,69,69,58,58,58,67,67,67,30.21,30.21,14,14,0,0.00
2013-5-19,80,80,80,77,77,77,91,91,91,29.88,29.88,21,21,0,0.00
2013-5-20,86,84,82,81,78,76,95,84,73,29.94,29.88,18,16,0,0.00
2013-5-21,85,82,81,82,79,76,95,89,83,29.91,29.83,25,16,0,0.00
2013-5-22,85,82,81,82,79,77,92,90,87,29.83,29.77,20,19,0,0.00
2013-5-23,85,82,80,80,78,77,91,88,84,29.83,29.80,11,8,0,0.00
2013-5-25,83,81,80,79,78,76,95,90,87,29.86,29.82,6,3,0,0.00
2013-5-26,83,81,80,79,77,76,91,88,85,29.88,29.81,15,10,0,0.00
2013-5-27,80,78,76,76,75,73,100,91,83,29.87,29.75,33,19,0,0.00
2013-5-28,83,80,78,79,76,75,90,89,88,29.78,29.72,13,9,0,0.00
2013-5-29,70,70,70,64,64,64,81,81,81,29.83,29.83,16,16,0,0.00
2013-5-30,70,70,70,64,64,64,81,81,81,29.91,29.83,16,14,0,0.00
2013-5-31,66,66,66,61,61,61,84,84,84,29.85,29.85,10,10,0,0.00
2013-6-1,58,58,58,54,54,54,88,88,88,29.80,29.80,14,14,0,0.00
2013-6-2,55,55,55,52,52,52,88,88,88,29.83,29.83,30,30,0,0.00
2013-6-9,57,57,57,57,57,57,100,100,100,29.86,29.86,16,16,0,0.00
2013-6-16,61,61,61,56,56,56,83,83,83,29.97,29.97,18,18,0,0.00
2013-6-17,79,49,75,69,8,-100,82,48,71,29.94,29.81,24,21,0,0.00
2013-6-18,84,78,68,74,71,65,89,78,72,30.03,29.83,17,11,0,0.00
2013-6-19,89,86,82,79,79,78,87,78,72,29.74,29.68,6,6,0,0.00
2013-6-20,84,84,84,74,74,74,72,72,72,29.75,29.75,9,9,0,0.00
2013-6-26,80,80,80,77,77,77,91,91,91,29.84,29.84,23,23,0,0.00
2013-6-27,88,87,85,80,80,78,80,78,77,29.94,29.89,10,10,0,0.00
2013-7-8,85,85,85,78,78,78,80,80,80,30.00,30.00,16,16,0,0.00
2013-7-10,87,86,85,79,77,76,76,74,73,29.97,29.88,14,13,0,0.00
2013-7-11,82,82,82,79,79,79,91,91,91,29.89,29.89,13,13,0,0.00
2013-7-12,80,80,80,76,76,76,87,87,87,29.80,29.80,18,18,0,0.00
2013-7-17,86,86,86,78,78,78,77,77,77,29.80,29.80,6,6,0,0.00
2013-7-18,87,87,87,79,79,79,76,76,76,29.88,29.88,3,3,0,0.00
2013-7-19,80,80,80,74,74,74,82,82,82,29.89,29.89,9,9,0,0.00
2013-7-20,73,71,68,65,64,64,89,80,72,29.85,29.77,17,12,0,0.00
2013-7-31,64,64,64,58,58,58,79,79,79,0.00,40.00,22,22,0,0.00
2013-8-1,62,59,58,55,54,54,88,85,78,30.06,30.04,24,24,0,0.00
2013-8-3,82,75,68,77,71,65,89,86,83,29.91,29.84,18,18,0,0.00
2013-8-4,87,87,87,79,79,79,76,76,76,29.83,29.83,12,12,0,0.00
2013-8-5,87,87,87,79,79,79,76,76,76,29.78,29.78,13,13,0,0.00
2013-8-6,83,83,83,78,78,78,83,83,83,29.83,29.83,8,8,0,0.00
2013-8-11,81,79,78,77,77,77,95,93,87,29.81,29.78,14,14,0,0.00
2013-8-12,88,84,81,80,78,77,87,83,77,29.89,29.84,25,23,0,0.00
2013-8-13,93,88,82,81,79,78,87,76,68,29.93,29.90,22,18,0,0.00
2013-8-14,86,43,86,78,-11,-100,77,38,77,29.96,29.96,9,9,0,0.00
2013-8-15,83,80,79,79,76,75,88,86,86,29.97,29.89,11,10,0,0.00
2013-8-17,86,81,79,74,72,69,82,73,66,29.92,29.88,23,15,0,0.00
2013-8-18,85,83,80,74,74,74,82,74,69,29.94,29.93,15,12,0,0.00
2013-8-19,91,74,82,76,50,-100,75,68,61,29.99,29.91,16,12,0,0.00
2013-8-20,88,84,80,76,75,74,82,74,67,29.97,29.95,10,10,0,0.00
2013-8-31,84,84,84,74,74,74,72,72,72,29.84,29.84,9,9,0,0.00
2013-9-1,90,85,81,78,76,74,87,75,67,29.91,29.83,9,6,0,0.00
2013-9-2,84,84,84,74,74,74,72,72,72,29.95,29.95,14,14,0,0.00
2013-9-3,83,82,82,78,78,78,87,85,83,29.84,29.81,17,13,0,0.00
2013-9-4,85,83,82,78,77,76,83,81,80,29.85,29.78,17,14,0,0.00
2013-9-5,82,81,80,77,77,77,91,88,83,29.84,29.78,9,9,0,0.00
2013-9-6,75,75,75,75,75,75,100,100,100,29.72,29.72,5,5,0,0.00
2013-9-7,80,80,80,76,76,76,87,87,87,29.67,29.67,9,9,0,0.00
2013-9-12,78,78,78,77,77,77,95,95,95,29.52,29.52,30,30,0,0.00
2013-9-13,83,82,80,80,79,78,100,89,83,29.56,29.49,29,21,0,0.00
2013-9-14,86,86,86,78,78,78,77,77,77,29.50,29.50,25,25,0,0.00
2013-9-15,76,74,73,70,70,70,90,86,82,29.62,29.54,23,22,0,0.00
2013-9-16,69,68,68,64,63,62,85,82,80,29.77,29.74,32,28,0,0.00
2013-9-17,67,67,67,59,59,59,76,76,76,29.85,29.85,38,38,0,0.00
2013-9-22,66,64,63,61,60,60,89,88,84,30.00,29.99,14,12,0,0.00
2013-9-23,64,64,64,62,62,62,94,94,94,30.03,30.03,10,10,0,0.00
2013-9-24,70,70,70,61,61,61,72,72,72,29.94,29.94,31,31,0,0.00
2013-9-25,66,64,61,58,56,55,83,76,70,30.00,29.96,30,29,0,0.00
2013-10-8,63,63,63,51,51,51,64,64,64,29.94,29.94,23,23,0,0.00
2013-10-9,68,61,61,51,51,51,68,68,68,29.86,29.83,23,23,0,0.00
2013-10-10,71,67,65,63,8,-100,80,52,76,29.90,29.85,18,12,0,0.00
2013-10-11,73,73,73,69,69,69,85,85,85,29.91,29.91,17,17,0,0.00
2013-10-12,83,82,81,78,78,78,91,87,83,29.80,29.75,14,12,0,0.00
2013-10-13,82,82,82,77,77,77,83,83,83,29.83,29.83,14,14,0,0.00
2013-10-19,84,83,82,79,78,77,83,83,83,29.83,29.81,22,18,0,0.00
2013-10-20,84,83,82,79,77,74,88,81,72,29.89,29.87,11,9,0,0.00
2013-10-21,80,80,80,76,76,76,87,87,87,29.92,29.87,10,10,0,0.00
2013-11-3,69,69,69,54,54,54,58,58,58,30.04,30.04,21,21,0,0.00
2013-11-7,74,74,74,68,68,68,82,82,82,29.98,29.98,18,18,0,0.00
2013-11-8,68,68,68,57,57,57,67,67,67,30.11,30.11,21,21,0,0.00
2013-11-11,70,70,70,59,59,59,67,67,67,30.12,30.12,13,13,0,0.00
2013-11-12,73,73,73,69,69,69,85,85,85,30.04,30.04,33,33,0,0.00
2013-11-13,81,79,78,77,75,74,87,86,86,29.95,29.88,34,32,0,0.00
2013-11-14,84,84,84,77,77,77,79,79,79,29.81,29.81,29,29,0,0.00
2013-11-15,82,82,82,78,78,78,87,87,87,29.78,29.78,28,28,0,0.00
2013-11-17,82,82,82,79,79,79,91,91,91,29.78,29.78,22,22,0,0.00
2013-11-26,84,83,81,77,77,76,83,81,79,29.79,29.73,16,14,0,0.00
2013-11-29,68,68,68,60,60,60,75,75,75,30.04,30.04,6,6,0,0.00
2013-11-30,62,62,62,55,55,55,78,78,78,30.07,30.07,26,26,0,0.00
2013-12-9,45,45,45,36,36,36,71,71,71,30.19,30.19,14,14,0,0.00
2013-12-10,60,60,60,43,43,43,53,53,53,30.03,30.03,14,14,0,0.00
2013-12-11,70,69,68,62,60,58,76,74,71,30.09,30.05,9,9,0,0.00
2013-12-12,83,82,82,76,75,75,80,79,79,30.00,29.91,23,22,0,0.00
2013-12-13,88,84,80,84,80,77,91,90,88,29.90,29.75,10,9,0,0.00
2013-12-19,80,80,80,76,76,76,87,87,87,29.77,29.77,34,34,0,0.00
2013-12-20,88,83,79,76,74,73,83,75,67,29.86,29.85,31,30,0,0.00
2013-12-21,78,78,78,75,75,75,90,90,90,29.91,29.91,17,17,0,0.00
2013-12-22,80,80,80,74,74,74,82,82,82,29.89,29.89,26,26,0,0.00